Lapse_Rate
5.4 5.4 5.2 5.3 5.3 5.6 5.8 5.9 5.9 5.8 5.7 5.0 4.1 3.8 3.8 3.7 4.9 5.0 5.7 6.1 6.7 6.6 6.1 6.0 6.3 5.7 5.8 6.0 6.7 6.5 6.5 6.5 6.4 6.0 5.8 5.9 5.8 5.8 5.8 5.6 5.8 5.3 5.3 5.7 6.1 6.1 5.9
5.3 5.3 5.2 5.2 5.3 5.5 5.4 5.6 5.7 5.5 4.5 3.5 3.7 3.6 3.9 4.2 4.6 5.0 5.0 6.0 6.9 6.6 6.2 6.3 6.2 6.1 5.6 6.0 6.5 6.4 6.4 6.3 6.5 6.1 6.0 5.6 5.6 5.6 5.7 5.8 5.3 5.0 5.5 5.4 5.5 5.8 5.8
5.3 5.3 5.0 5.0 5.2 5.1 5.1 5.5 5.5 4.9 3.6 3.2 3.5 4.3 4.8 5.2 5.5 5.4 5.0 4.9 5.7 7.1 6.6 6.3 6.4 6.2 5.9 6.1 6.3 6.5 6.5 6.3 6.6 6.2 6.0 5.8 5.5 5.0 5.4 5.3 5.0 5.0 4.9 4.8 5.3 5.8 5.7
5.1 5.1 4.9 5.0 5.1 4.9 5.2 5.2 4.0 3.3 3.3 3.7 4.6 5.1 5.7 5.9 6.1 6.2 5.9 5.0 5.3 5.5 6.6 6.4 6.5 6.1 5.5 5.7 6.1 6.8 6.5 6.5 6.6 6.2 6.0 5.9 5.7 5.5 5.5 5.0 5.0 4.7 4.8 4.8 5.6 5.9 5.6
5.1 5.0 4.9 5.1 5.2 5.2 4.9 4.3 3.4 3.4 3.8 4.6 5.5 5.8 6.2 6.5 7.0 7.2 6.7 5.9 5.2 5.2 6.4 6.6 6.5 6.2 5.7 5.7 6.3 6.8 6.8 6.5 6.4 6.6 6.2 6.0 5.8 5.4 5.6 5.1 5.2 4.9 4.8 4.9 5.6 5.7 5.6
5.2 5.1 5.0 4.9 4.9 5.1 4.8 4.0 3.3 3.5 4.2 4.9 6.1 6.2 7.0 7.4 7.6 7.6 7.4 6.9 5.8 5.2 6.2 6.1 6.3 6.2 6.1 6.0 6.6 6.5 6.6 6.5 6.5 6.8 6.5 6.2 6.4 5.6 5.3 5.3 4.9 5.3 5.2 5.1 5.0 5.3 5.0
5.1 5.0 4.9 4.9 5.0 5.0 5.0 4.4 3.5 3.9 4.8 5.6 6.5 6.7 7.7 7.7 7.7 7.4 7.4 7.3 6.1 5.8 5.9 6.2 6.1 6.2 6.0 5.9 6.6 6.4 6.3 6.7 6.4 6.6 6.3 6.1 6.1 5.9 5.6 5.4 5.6 5.2 4.9 4.8 5.3 5.0 4.8
5.0 5.0 4.9 4.8 4.8 4.9 4.6 4.1 3.6 4.4 5.2 6.1 7.0 7.3 7.6 7.8 7.7 7.7 7.4 7.1 6.5 5.6 5.8 6.4 6.0 6.3 6.7 6.6 6.7 6.3 6.2 6.3 6.5 6.2 6.2 6.1 5.9 5.8 5.5 5.5 5.4 4.9 4.6 5.2 5.4 5.0 4.4
5.1 5.1 5.0 4.9 4.9 4.8 4.3 4.0 4.0 5.5 6.3 7.0 7.8 8.0 8.0 7.9 7.7 7.4 7.3 7.2 6.7 5.7 5.7 6.2 6.0 6.1 5.7 6.6 6.6 6.4 6.0 6.3 6.5 6.3 6.2 6.2 6.1 6.1 5.9 5.6 5.3 5.2 5.1 5.2 5.1 5.2 5.0
5.1 5.1 5.1 4.9 4.9 4.8 4.2 4.2 4.7 6.1 6.6 7.1 7.5 8.1 8.1 7.8 7.7 7.5 7.4 7.3 6.2 5.9 6.0 5.5 6.1 6.0 5.5 6.3 6.2 6.2 6.1 6.5 6.2 5.9 6.0 6.0 5.9 5.7 5.8 5.8 5.5 5.2 5.0 5.2 5.2 5.1 4.5
5.0 5.2 5.0 4.7 4.9 4.7 4.6 4.1 4.9 6.3 6.7 7.1 7.3 7.3 7.6 7.4 7.7 7.5 7.2 6.7 6.4 6.0 6.0 6.7 6.2 6.4 5.9 5.9 6.1 5.9 6.0 6.1 6.0 6.0 5.8 5.6 5.5 5.7 5.9 5.7 5.4 5.3 5.3 5.2 5.0 4.7 4.3
4.9 5.1 4.8 4.7 4.9 4.9 4.6 4.1 4.9 6.2 6.7 7.0 7.0 7.1 7.0 7.3 7.5 7.4 7.1 6.5 6.1 6.3 5.9 6.5 6.2 6.2 6.0 6.0 5.9 6.0 6.0 5.9 5.7 5.9 5.6 5.6 5.8 5.6 5.6 5.5 5.3 5.3 5.4 5.1 4.8 4.7 3.2
5.4 5.3 4.9 4.8 4.9 5.0 4.7 4.3 5.0 6.0 6.6 7.1 7.3 7.5 7.1 7.4 7.4 6.9 6.8 6.4 6.3 5.4 5.9 6.2 6.2 6.0 5.9 5.7 5.7 5.7 5.8 5.9 5.8 5.6 5.5 5.6 5.5 5.4 5.4 5.2 5.1 5.2 5.1 4.1 3.6 3.1 3.3
5.1 5.3 4.9 4.9 5.1 5.0 4.8 4.2 4.7 6.0 6.4 7.2 7.3 7.6 7.2 6.9 6.6 6.2 5.8 5.6 5.9 5.7 5.9 6.2 6.2 6.1 5.8 5.7 5.8 5.8 6.0 5.7 5.8 5.8 5.9 5.7 5.3 5.3 5.3 5.2 5.6 5.1 5.0 4.8 4.0 3.8 3.6
4.9 5.1 4.9 5.1 5.2 5.1 4.8 4.1 4.3 5.4 6.3 7.0 7.1 7.2 6.9 6.5 5.8 5.9 6.4 6.3 5.9 5.9 6.3 6.0 6.0 6.0 5.8 5.7 5.7 6.0 5.8 5.6 5.7 6.0 6.1 5.6 5.4 5.3 5.2 5.1 5.2 4.9 4.4 4.6 4.3 3.9 3.1
4.9 4.9 5.0 5.2 5.3 5.2 4.7 4.0 4.1 4.9 5.9 6.8 6.4 6.3 5.8 5.6 5.6 5.7 6.0 6.2 6.2 6.2 6.1 6.3 6.0 5.8 5.6 5.6 5.6 5.8 5.5 5.3 5.8 6.0 6.0 5.7 5.3 5.1 4.8 4.8 4.8 4.8 4.8 4.5 4.2 2.2 3.1
4.8 4.8 4.9 5.2 5.4 5.3 4.8 4.3 4.6 5.3 5.7 6.3 5.8 5.9 5.9 6.2 5.9 6.0 5.9 6.2 6.4 6.0 5.8 5.8 5.7 5.5 5.6 5.5 6.0 5.6 5.6 5.7 5.7 5.7 5.7 5.5 5.5 4.9 4.9 4.7 4.9 4.6 4.4 4.4 4.5 4.2 2.7
4.6 4.9 4.9 5.3 5.5 5.4 4.9 4.5 4.7 5.7 5.7 5.7 6.0 6.1 6.7 6.9 6.4 6.0 6.1 6.3 6.0 5.8 5.9 5.9 6.0 6.4 6.1 6.0 5.8 5.8 5.5 5.3 5.5 5.4 5.4 5.4 5.1 5.0 4.8 4.9 4.7 4.7 4.8 4.5 4.4 4.1 4.0
4.7 4.8 4.9 5.3 5.6 5.6 5.1 4.9 5.4 6.0 5.9 6.2 7.0 6.8 7.5 6.9 6.4 6.2 6.5 6.3 6.1 6.0 5.9 5.8 5.9 6.1 6.1 6.2 6.0 5.9 5.6 5.5 5.3 5.2 5.2 5.3 5.0 4.8 4.6 4.8 4.7 4.5 4.4 4.3 4.3 4.4 4.2
4.7 4.6 4.9 5.3 5.6 5.8 5.6 5.5 5.8 6.5 6.3 6.6 6.9 6.2 6.8 6.9 6.6 6.6 6.5 6.3 6.2 6.0 5.9 6.2 5.9 6.0 5.7 6.0 6.0 5.7 5.6 5.2 5.3 5.1 5.2 5.2 5.2 5.3 5.0 5.1 4.9 4.6 4.9 4.8 4.4 4.4 4.2
4.7 4.5 4.9 5.1 5.6 6.1 5.9 6.2 6.5 6.2 6.2 6.4 6.8 6.4 6.2 6.6 6.6 6.9 6.6 6.2 6.0 6.1 6.1 6.1 5.6 5.7 5.8 5.8 5.8 5.8 5.6 5.5 5.3 5.2 5.2 5.1 5.1 5.1 5.1 5.0 4.8 4.9 5.0 4.7 4.6 5.1 4.1
4.6 4.4 4.8 5.1 5.5 6.2 5.9 6.5 6.6 6.7 7.2 6.8 6.6 6.4 6.4 5.8 6.1 6.0 6.3 6.1 6.2 6.1 6.1 6.0 5.9 6.0 6.0 6.0 6.1 6.0 6.1 5.8 5.5 5.2 5.1 5.0 4.9 4.9 5.2 5.2 5.2 5.2 5.3 5.2 5.0 5.0 4.4
4.4 4.4 4.6 5.1 5.2 6.0 6.1 5.9 6.4 6.3 6.4 6.7 6.6 6.2 5.8 5.8 6.0 5.9 5.8 5.7 5.9 5.9 5.9 5.8 6.0 6.2 6.3 6.2 6.1 6.2 6.1 5.9 5.8 5.7 5.4 4.8 4.5 4.7 5.2 5.1 5.2 5.4 6.1 6.0 6.1 5.9 5.7
4.1 4.3 4.6 5.1 5.1 5.6 6.0 5.9 6.0 6.2 6.2 6.3 6.5 6.6 6.2 6.0 5.9 6.0 6.1 6.0 6.0 6.0 5.9 5.8 5.8 5.9 6.1 6.2 6.1 5.9 5.7 5.6 5.4 5.1 5.1 4.8 4.5 4.7 5.0 5.3 4.5 6.0 6.3 6.3 6.0 6.1 5.7
3.7 4.2 4.4 4.8 5.1 5.4 5.6 5.8 5.9 6.0 6.2 6.1 6.2 6.2 6.3 6.1 6.0 5.8 5.9 5.8 6.0 6.0 5.8 5.8 5.9 6.0 6.0 6.0 5.8 5.5 5.3 5.3 5.2 4.9 4.7 4.7 4.8 4.9 4.8 4.8 5.9 6.0 6.3 6.2 6.0 6.5 6.3
3.7 4.0 4.3 4.7 5.0 5.1 5.4 5.4 5.7 5.8 5.8 6.3 6.2 6.0 6.0 5.9 5.9 5.8 5.9 5.8 6.1 6.1 6.1 6.1 6.0 6.2 6.3 6.2 6.1 5.8 5.8 5.6 5.3 5.0 4.7 4.7 4.8 4.8 4.9 4.8 5.4 6.4 6.2 6.3 6.2 6.5 6.0
3.3 4.0 4.2 4.4 4.9 4.8 5.3 5.3 5.2 5.5 5.6 5.5 5.5 5.7 5.6 5.6 5.7 5.7 5.7 5.9 6.0 6.0 5.8 5.7 5.9 6.0 6.2 6.1 6.1 6.0 6.2 6.0 5.7 5.3 4.9 4.9 4.9 4.8 4.8 5.1 5.8 6.3 6.2 6.4 6.2 6.3 6.2
3.7 4.0 4.1 4.2 4.5 4.6 4.6 4.9 5.2 4.8 5.0 5.4 5.2 5.5 5.6 5.8 5.7 5.4 5.5 5.7 5.8 5.9 5.9 5.9 5.9 6.1 6.1 6.1 6.1 6.2 6.3 6.2 5.9 5.8 5.5 5.2 4.8 4.8 5.0 5.1 5.3 6.1 6.2 6.1 6.2 6.5 6.5
4.0 4.0 4.0 4.1 4.3 4.2 4.3 4.3 4.3 4.0 4.1 4.9 4.7 5.5 5.5 5.9 5.8 5.5 5.8 5.8 5.8 6.0 5.9 6.0 6.1 6.2 6.5 6.3 6.2 6.2 6.3 6.2 6.1 6.1 5.9 5.8 5.9 6.0 5.9 6.3 6.2 6.3 6.1 6.1 6.4 6.6 6.6
Wind_Speed
21 17 20 22 23 25 25 26 26 28 27 25 23 22 21 22 22 22 22 22 22 21 20 21 22 15 5 5 9 11 6 22 18 9 10 9 6 5 6 7 4 3 3 4 6 7 4
23 21 21 23 23 24 25 30 28 28 27 21 20 21 20 20 22 22 21 22 20 20 20 19 21 16 5 9 7 12 3 11 8 9 7 7 6 7 5 4 8 4 8 6 4 4 3
21 22 22 23 26 28 28 26 27 24 24 25 26 23 22 21 20 21 20 19 20 20 21 20 23 10 8 14 5 8 6 7 8 9 6 7 4 4 4 3 5 2 5 2 4 3 4
22 23 22 24 26 26 26 26 26 26 25 25 24 21 20 19 20 18 17 19 19 20 20 21 16 9 5 7 20 6 4 4 7 7 10 5 3 1 3 1 3 5 4 1 4 3 6
22 24 26 22 26 27 29 26 25 26 25 24 22 20 19 19 18 15 20 22 23 22 19 17 8 7 4 4 5 9 4 4 7 4 6 7 4 1 2 6 3 1 3 5 6 7 6
23 25 25 26 27 29 27 26 24 25 24 23 21 19 19 20 14 14 19 23 21 16 7 4 3 3 4 5 6 6 5 4 4 12 6 3 3 3 2 4 7 6 4 3 5 4 2
24 24 25 26 26 26 26 25 25 25 25 23 21 22 20 21 17 10 10 4 4 3 3 4 6 5 3 3 7 6 4 5 5 3 4 4 3 6 5 5 3 3 2 2 4 4 5
24 25 25 25 25 26 26 26 26 24 23 22 21 20 21 19 17 16 2 2 2 2 3 10 8 15 11 6 9 9 8 6 6 5 6 3 2 5 10 6 6 1 3 4 6 1 3
23 24 25 25 25 25 26 27 25 25 24 22 23 21 18 17 18 4 2 5 5 3 2 2 9 11 6 4 4 12 9 5 8 7 4 5 1 7 5 6 6 4 3 2 4 5 1
23 24 25 26 25 24 26 25 26 27 24 25 25 21 19 19 7 2 6 3 7 2 2 3 7 5 5 6 4 4 6 5 3 9 7 3 2 4 4 2 4 2 1 3 3 4 4
23 25 25 27 26 25 24 27 28 28 27 26 24 22 21 17 3 1 1 5 7 1 4 9 6 12 3 1 12 6 3 3 5 8 5 4 5 3 3 3 4 3 4 4 2 3 4
23 22 25 28 26 25 25 27 28 28 27 28 29 28 24 8 3 6 7 3 0 2 3 5 6 10 8 5 2 7 3 4 3 6 5 2 2 3 4 4 4 7 5 6 4 3 2
20 22 25 26 27 25 26 28 29 29 30 32 33 27 14 2 1 6 8 2 3 1 2 3 8 14 12 5 5 7 6 3 4 5 3 2 2 1 3 6 3 5 6 2 4 2 6
22 21 26 28 25 27 28 29 29 30 32 33 27 10 6 4 3 11 3 1 3 4 2 5 12 14 6 7 11 7 6 4 3 5 4 4 2 5 2 4 5 4 6 4 4 3 4
20 22 22 25 25 28 28 30 30 31 30 32 13 4 3 6 7 3 2 2 1 4 4 9 15 8 4 4 6 5 2 5 3 3 5 4 1 3 4 3 6 3 2 4 3 4 3
19 22 23 25 25 27 28 30 31 32 31 19 2 2 4 9 5 5 2 5 3 4 7 7 5 1 4 4 5 3 7 4 3 6 2 5 4 2 2 4 1 4 6 3 3 1 4
17 22 24 25 24 26 27 29 32 33 28 6 3 3 4 10 3 2 2 3 3 6 6 2 3 4 6 5 6 3 9 1 7 4 4 1 4 1 4 3 6 3 2 1 3 4 3
18 21 24 24 26 24 27 29 31 32 27 8 2 3 3 3 2 1 2 6 8 6 6 4 4 7 4 4 4 4 7 3 8 6 6 1 4 3 6 2 4 4 6 6 3 3 2
17 20 22 23 24 24 26 29 30 29 23 2 2 1 1 1 2 2 3 3 3 7 8 3 3 3 5 5 5 5 4 5 8 8 7 4 1 2 2 5 3 3 5 4 4 2 6
16 18 20 22 23 23 25 28 30 31 23 3 1 2 3 1 2 1 4 3 2 3 4 5 5 12 5 3 3 4 3 4 3 3 9 6 3 4 5 4 4 3 5 7 6 3 3
14 16 18 20 22 22 23 27 30 32 26 2 2 1 2 2 3 2 3 6 6 6 6 8 7 4 5 3 4 4 3 3 5 4 3 4 4 1 4 6 3 4 5 7 9 18 6
12 14 16 18 19 20 22 25 27 31 23 3 2 2 3 2 1 4 3 4 6 4 4 3 5 4 7 3 2 5 6 3 3 1 3 1 2 2 5 5 7 6 9 10 13 15 14
11 13 14 16 18 19 20 22 23 26 16 3 2 3 1 4 2 0 2 2 5 3 8 7 6 6 9 3 4 3 5 6 6 6 3 4 3 2 4 3 3 5 11 15 6 6 8
10 13 11 13 16 17 18 19 19 20 18 1 2 1 2 3 1 1 3 2 4 3 5 3 7 4 0 2 3 5 8 7 5 3 4 4 4 2 3 3 1 6 2 6 11 9 9
9 11 9 11 13 15 16 16 17 17 16 1 2 1 2 3 2 4 3 3 3 5 4 4 5 1 3 4 3 3 2 2 3 2 4 5 4 1 1 2 6 2 1 1 5 6 3
11 11 9 11 10 12 14 15 15 15 15 3 1 1 1 2 3 3 2 3 3 2 2 3 1 2 4 2 1 3 4 4 3 2 3 3 3 2 2 0 3 3 1 2 3 4 4
11 12 10 8 10 12 12 14 15 13 14 5 2 1 1 2 3 3 3 3 4 2 3 3 1 1 1 2 1 3 2 4 5 7 5 4 2 5 3 3 6 7 4 3 1 4 2
11 13 10 9 10 10 12 12 14 13 12 5 3 1 1 2 5 3 4 1 1 2 3 3 2 0 1 1 2 1 2 3 3 5 6 7 6 3 3 3 7 3 3 2 3 2 2
11 13 11 11 11 10 12 12 14 12 10 7 2 2 0 2 4 3 7 6 3 2 3 2 1 2 3 1 1 1 2 2 2 3 2 4 6 4 6 5 5 3 3 0 1 3 3
Wind_Direction
332 340 346 334 329 330 332 333 330 328 324 322 321 317 318 316 312 310 308 304 296 302 296 297 306 174 154 212 242 283 285 182 191 173 176 182 173 172 181 177 233 218 262 226 247 269 244
340 343 339 333 332 330 333 333 333 333 331 330 319 312 312 304 310 308 307 303 296 297 292 290 302 167 141 228 263 257 158 166 163 167 180 170 193 208 206 186 173 204 210 251 263 238 242
338 335 332 339 344 334 333 335 333 332 328 316 321 324 315 313 313 309 310 308 302 295 290 289 299 183 162 216 301 184 157 178 173 180 175 195 207 189 165 132 193 178 167 292 239 230 253
338 332 342 343 338 330 333 329 332 328 326 326 324 323 314 318 317 317 316 313 304 290 288 285 280 212 210 207 251 278 164 179 197 188 207 202 126 224 168 209 116 130 70 215 263 254 245
329 340 332 333 331 334 333 331 328 326 331 327 327 326 321 319 320 323 324 314 298 289 286 290 294 170 211 136 189 223 162 190 130 89 122 115 100 133 110 137 77 37 166 205 303 219 225
343 336 343 341 340 337 338 336 332 331 333 332 330 325 320 320 321 327 329 320 288 285 270 41 98 85 270 198 156 179 199 202 136 124 120 121 144 116 121 145 197 192 185 210 230 285 257
338 340 342 336 340 339 340 337 336 334 333 334 333 330 325 321 326 329 335 347 6 29 219 170 189 240 165 161 128 176 173 146 120 121 133 157 159 169 144 201 135 156 138 233 260 294 321
339 337 338 343 340 341 340 338 334 336 333 331 329 329 324 322 322 317 355 298 266 170 306 226 270 262 294 150 158 181 144 160 139 134 121 109 211 194 172 189 213 246 282 287 285 246 307
339 339 339 343 341 341 335 339 336 332 334 332 329 327 325 327 321 332 254 244 163 169 303 317 223 242 185 117 122 166 166 150 147 133 147 141 145 158 156 171 190 160 164 219 259 322 7
339 341 336 341 338 339 337 339 335 335 337 338 332 329 324 328 329 317 296 237 170 105 128 191 190 204 260 135 72 107 194 142 147 152 135 162 252 141 150 138 121 116 123 165 47 32 268
342 345 337 340 340 339 340 337 337 340 340 333 327 318 309 303 262 259 348 143 145 104 132 149 171 152 153 122 140 203 40 26 143 131 112 223 160 129 106 179 134 164 98 91 79 67 1
343 344 338 341 342 341 342 338 340 340 331 330 327 318 313 294 184 212 138 140 207 55 190 185 125 157 130 125 97 128 100 37 89 114 78 93 69 100 160 60 128 125 73 38 57 71 343
347 344 341 346 347 346 345 342 343 338 337 332 321 314 312 287 345 138 130 136 60 348 313 137 138 143 123 122 119 136 145 115 133 122 117 46 30 79 95 91 47 91 68 357 354 358 230
348 342 347 347 349 350 347 347 342 343 340 334 339 7 350 9 116 121 119 40 88 235 259 162 136 119 89 124 137 134 132 118 46 82 107 137 299 175 185 159 174 157 143 156 215 226 285
348 341 350 344 350 349 348 348 345 345 339 338 351 345 35 9 87 54 29 12 300 243 175 127 114 106 112 71 117 131 138 157 169 156 126 123 265 113 156 131 133 196 115 192 83 26 36
350 341 346 351 351 350 349 349 349 344 336 345 49 21 25 330 44 45 356 336 5 294 100 118 81 104 106 117 116 130 153 199 199 182 176 192 97 154 156 95 98 131 153 64 357 102 269
348 344 350 353 348 351 353 352 353 349 355 55 52 63 329 344 24 80 291 331 310 118 118 42 116 100 94 123 122 108 179 197 178 185 172 118 95 321 124 203 182 142 186 178 121 160 192
351 348 355 355 353 355 355 357 357 358 359 40 63 63 291 7 40 9 293 315 327 188 262 287 87 105 112 111 132 135 180 258 188 155 160 69 110 167 208 265 189 161 193 167 134 244 231
354 350 355 357 356 357 356 359 359 360 3 339 41 336 195 93 35 323 266 297 269 211 240 115 114 134 137 125 141 119 115 342 183 160 153 162 99 99 68 7 15 185 198 189 128 116 205
353 356 353 359 359 359 359 359 359 358 355 85 41 20 325 337 129 8 330 342 303 299 31 76 97 128 100 96 59 121 103 30 60 116 146 96 145 167 182 199 146 196 190 195 160 177 196
354 357 352 357 359 3 3 0 1 357 352 113 21 17 298 351 27 306 360 325 32 23 17 42 94 127 126 120 109 105 107 85 25 48 70 111 186 217 249 251 206 225 221 199 195 230 236
348 357 353 356 358 2 2 360 3 1 358 75 29 356 332 295 335 353 339 342 29 3 28 82 96 75 89 76 258 155 123 128 183 37 105 40 169 38 293 267 221 241 236 226 232 247 255
339 348 354 354 355 358 359 360 2 8 14 33 340 317 304 304 302 34 274 316 360 36 21 43 126 87 64 30 41 59 112 139 159 144 133 134 142 90 273 338 300 283 225 210 203 220 222
329 342 352 351 351 356 357 1 1 9 16 318 346 319 333 292 306 282 357 77 50 18 118 15 41 80 272 104 124 54 57 77 105 142 127 125 120 137 258 356 301 249 254 185 201 239 220
318 338 345 343 345 351 351 355 356 359 10 7 293 324 317 269 275 319 17 119 68 45 65 64 23 330 321 48 80 103 36 74 192 192 160 135 142 206 289 269 279 221 257 137 203 281 185
312 326 330 335 336 339 341 346 349 349 356 2 286 311 323 296 251 268 276 165 150 121 56 83 325 333 48 79 74 186 202 189 158 144 69 129 162 131 349 207 254 255 188 358 112 288 200
311 314 319 323 321 330 331 335 333 340 345 347 269 107 243 272 274 322 214 199 153 123 123 109 97 31 30 105 151 211 256 168 162 172 172 175 192 229 222 277 285 251 269 145 28 254 235
307 308 313 319 313 315 323 324 319 327 339 2 286 91 56 298 281 272 309 22 27 112 147 161 97 300 72 190 187 204 221 254 136 163 164 180 176 197 186 222 267 226 90 223 239 257 253
304 303 313 312 310 310 313 309 309 307 320 327 287 2 348 221 274 310 283 278 264 332 127 144 152 180 198 151 162 99 290 320 185 209 148 204 191 180 197 212 247 263 233 35 270 244 251